Hourly Data Report for June 05, 2012

All times are specified in Local Standard Time (LST). Add 1 hour to adjust for Daylight Saving Time where and when it is observed.

VICTORIA HARTLAND CS
BRITISH COLUMBIA

48°32'01.800" N
123°27'32.900" W
154.10 m
1018FJ5

Download Data

Hourly Data (June 2012)
Hourly Data Report for June 5, 2012
Temp Definition
°C
Dew Point Temp Definition
°C
Rel Hum Definition
%
Wind Dir Definition
10's deg

Wind Spd Definition
km/h
Visibility Definition
km
Stn Press Definition
kPa
Hmdx Definition


Wind Chill Definition


Weather Definition


TIME
00:00 8.5 6.3 86   0   99.18     LegendNANA
01:00 9.0 5.9 81   0   99.19     LegendNANA
02:00 9.9 3.7 65 25 6   99.24     LegendNANA
03:00 10.0 4.0 66 24 6   99.25     LegendNANA
04:00 10.2 3.9 65 26 15   99.31     LegendNANA
05:00 10.2 3.3 62 3 2   99.43     LegendNANA
06:00 9.9 5.0 72 24 11   99.51     LegendNANA
07:00 10.2 5.5 73 24 7   99.60     LegendNANA
08:00 10.9 5.1 67 25 11   99.68     LegendNANA
09:00 11.2 4.6 64 24 11   99.75     LegendNANA
10:00 12.1 4.3 59 20 7   99.84     LegendNANA
11:00 11.9 3.3 56 22 11   99.91     LegendNANA
12:00 13.0 3.5 52 22 9   99.95     LegendNANA
13:00 13.5 0.7 42 29 13   99.99     LegendNANA
14:00 14.5 0.1 37 24 7   100.04     LegendNANA
15:00 14.4 -0.1 37 31 13   100.13     LegendNANA
16:00 14.6 -0.1 37 26 9   100.15     LegendNANA
17:00 14.4 -0.3 36 23 6   100.22     LegendNANA
18:00 13.0 0.5 42 23 11   100.23     LegendNANA
19:00 11.5 0.8 48 24 13   100.30     LegendNANA
20:00 10.4 0.5 50 21 6   100.32     LegendNANA
21:00 9.6 0.1 51 24 11   100.37     LegendNANA
22:00 9.1 -0.2 52 25 7   100.37     LegendNANA
23:00 8.8 0.6 56 25 11   100.33     LegendNANA

Notes on Data Quality.

Legend

  • E = Estimated
  • M = Missing
  • NA = Not Available
  • ‡ = Partner data that is not subject to review by the National Climate Archives
Date modified: